Regional Weather Roundup
Issued by NWS

Home | Current Version | Previous Version | Text Only | Print | Product List | Glossary Off
Versions: 1 2 3 4 5 6 7 8 9 10 11 12 13 14 15 16 17 18 19 20 21 22 23 24 25 26 27

000
ASUS45 KSLC 201910
RWRUT

UTAH REGIONAL WEATHER ROUNDUP
NATIONAL WEATHER SERVICE SALT LAKE CITY UT
1200 PM MST FRI JAN 20 2017

UTZ001>011-023>025-202000-

NORTHERN UTAH

CITY           SKY/WX    TMP DP  RH WIND       PRES   REMARKS
BRIGHAM CITY     N/A     32  29  87 CALM      29.54F
HILL AFB       MOSUNNY   31  30  95 S7        29.51F WCI  24
LOGAN          CLOUDY    30  28  92 CALM      29.52F FOG
OGDEN          MOSUNNY   33  30  88 S6        29.51F WCI  28
SALT LAKE CITY PTSUNNY   37  33  85 S13       29.52F WCI  29
TOOELE VALLEY  FOG       32  32 100 NE3       29.52F VSB 1/4
WENDOVER       CLOUDY    25  23  93 CALM      29.53F
HEBER CITY     MOSUNNY   36  27  69 CALM      29.50F
WEST JORDAN    PTSUNNY   35  35 100 S16       29.53F WCI  25

$$

UTZ011>015-024>027-202000-

CENTRAL/NORTHEAST UTAH

CITY           SKY/WX    TMP DP  RH WIND       PRES   REMARKS
PROVO AIRPORT  CLOUDY    36  31  82 CALM      29.54F
MOAB/CANYONLAN CLOUDY    33  32  96 NW5       29.60F WCI  29
DELTA          PTSUNNY   32  30  93 CALM      29.55S
PRICE          CLOUDY    26  26 100 SE5       29.56F WCI  20
RICHFIELD      SUNNY     36  28  75 E2        29.57F
ROOSEVELT      CLOUDY    27  18  69 CALM      29.64F
VERNAL         LGT SNOW  21  16  81 E5        29.61F WCI  15

$$

UTZ013>016-019>022-027-202000-

SOUTHERN UTAH

CITY           SKY/WX    TMP DP  RH WIND       PRES   REMARKS
BRYCE CANYON   LGT SNOW  25  23  92 SE14      29.56F FOG     WCI  13
CEDAR CITY     CLOUDY    32  30  92 SW13      29.51F WCI  22
MILFORD        CLOUDY    34  30  85 SW8       29.52F WCI  27
ST GEORGE      CLOUDY    39  36  87 CALM      29.62F
HANKSVILLE     CLOUDY    34  32  93 MISG      29.63F
KANAB          FOG       34  34 100 NE2       29.65F VSB 1
BLANDING       PTSUNNY   33  28  83 S3        29.73F

$$

REGIONAL REPORTS     COLORADO/ARIZONA

CITY           SKY/WX    TMP DP  RH WIND       PRES   REMARKS
CRAIG, CO      FLURRIES  28  24  85 W6        29.56F WCI  22
GRAND JUNCTION CLOUDY    34  33  96 N9        29.60F WCI  27
RIFLE, CO      CLOUDY    36  31  82 W18       29.55F WCI  26
MONTROSE, CO   CLOUDY    37  27  67 NE5       29.61F WCI  33
CORTEZ, CO     CLOUDY    35  29  78 S7        29.67F WCI  29
COLORADO CITY  CLOUDY    36  34  93 SE9       29.63F WCI  29
PAGE, AZ       CLOUDY    40  29  64 CALM      29.63F
GRAND CANYON   LGT SNOW  29  28  96 S15G25    29.65F FOG     WCI  18
KINGMAN, AZ    LGT RAIN  43  37  79 S21G26    29.64F
FLAGSTAFF, AZ  SNOW      29  28  96 SW20G29   29.65F VSB 1/2 WCI  16

$$

REGIONAL REPORTS    NEVADA/IDAHO/WYOMING

CITY           SKY/WX    TMP DP  RH WIND       PRES   REMARKS
LAS VEGAS, NV  LGT RAIN  47  40  76 SE9       29.54F
ELY, NY        CLOUDY    29  25  85 S17       29.42F WCI  17
ELKO, NV       CLOUDY    32  22  66 CALM      29.38F
POCATELLO, ID  MOSUNNY   35  23  61 NW3       29.49F
BURLEY, ID     MOSUNNY   34  25  69 S9        29.44F WCI  27
FORT BRIDGER,    N/A     29  21  72 SE3       29.52F
EVANSTON, WY   SUNNY     25  19  78 E3        29.48F
ROCK SPRINGS,  FOG       20  16  84 E5        29.52F VSB 1/4 WCI  13
KEMMERER, WY     N/A     30  19  64 CALM      29.49F

$$




USA.gov is the U.S. government's official web portal to all federal, state and local government web resources and services.